Regional Weather Roundup
Issued by NWS

Home | Current Version | Previous Version | Text Only | Print | Product List | Glossary On
Versions: 1 2 3 4 5 6 7 8 9 10 11 12 13 14 15 16 17 18 19 20 21 22 23 24 25 26 27 28 29 30 31 32 33 34 35 36 37 38 39 40 41 42 43 44 45 46 47 48 49 50
000
ASUS44 KEWX 230002
RWRTX
SOUTH TEXAS REGIONAL WEATHER ROUNDUP
NATIONAL WEATHER SERVICE AUSTIN/SAN ANTONIO TX
700 PM CDT TUE JUL 22 2014

NOTE: "FAIR" INDICATED FEW OR NO CLOUDS BELOW 12,000 FEET WITH NO
SIGNIFICANT WEATHER AND/OR OBSTRUCTIONS TO VISIBILITY.

* - THESE STATIONS ARE NOT NWS OR FAA STATIONS...AND ARE NOT SUBJECT
    TO NWS AND FAA QUALITY CONTROL.

TXZ171-172-183>190-230100-
TEXAS HILL COUNTRY AND EDWARDS PLATEAU

CITY           SKY/WX    TMP DP  RH WIND       PRES   REMARKS
JUNCTION       MOSUNNY   96  61  31 E7        30.02F HX  96
6HR MIN TEMP:  91; 6HR MAX TEMP:  97;

*LLANO         SUNNY     95  66  38 E6        30.04S HX  98
BURNET         SUNNY     93  66  40 E7        30.04F HX  96
6HR MIN TEMP:  91; 6HR MAX TEMP:  96;

*HORSESHOE BAY SUNNY     94  62  34 E6        30.01S HX  94
6HR MIN TEMP:  92; 6HR MAX TEMP:  97;

*KERRVILLE     SUNNY     94  60  31 E9        30.04R HX  94
6HR MIN TEMP:  92; 6HR MAX TEMP:  97;

*FREDERICKSBRG MOSUNNY   94  59  30 E5        30.04S HX  93
6HR MIN TEMP:  90; 6HR MAX TEMP:  96;

*ROCKSPRINGS   MOSUNNY   91  61  35 E9        30.08S HX  91
*BOERNE STAGE  SUNNY     91  55  29 SE6       30.03S
*CASTROVILLE   SUNNY     95  62  33 E8        29.99S HX  95
HONDO          SUNNY     93  66  40 SE8       30.00S HX  96
6HR MIN TEMP:  88; 6HR MAX TEMP:  96;

*UVALDE        SUNNY     96  64  35 SE7       29.98S HX  97
6HR MIN TEMP:  88; 6HR MAX TEMP:  96;

DEL RIO        SUNNY     99  63  30 E13G18    29.95S HX 101
6HR MIN TEMP:  91; 6HR MAX TEMP: 100;

LAUGHLIN AFB   NOT AVBL
CARRIZO SPRGS  SUNNY     97  70  41 SE8       29.92S HX 103
$$

TXZ173-191>194-202-209-217>225-228-230100-
CENTRAL AND SOUTH CENTRAL TEXAS

CITY           SKY/WX    TMP DP  RH WIND       PRES   REMARKS
GEORGETOWN     MOSUNNY   93  68  43 S3        29.98F HX  97
AUSTIN/BERGSTM MOSUNNY   94  68  42 NE13      29.97F HX  98
6HR MIN TEMP:  90; 6HR MAX TEMP:  97;

AUSTIN/MABRY   SUNNY     94  68  42 CALM      29.99F HX  98
6HR MIN TEMP:  89; 6HR MAX TEMP:  96;

*AUSTIN/EXEC   SUNNY     93  70  46 E8        30.00S HX  99
*LAGO VISTA    SUNNY     92  64  39 SE6       30.03S HX  94
6HR MIN TEMP:  90; 6HR MAX TEMP:  95;

SAN MARCOS     SUNNY     95  64  36 CALM      29.98F HX  97
6HR MIN TEMP:  91; 6HR MAX TEMP:  97;

NEW BRAUNFELS  SUNNY     95  63  34 VRB3      29.96F HX  96
6HR MIN TEMP:  90; 6HR MAX TEMP:  97;

RANDOLPH AFB   NOT AVBL
PT SAN ANTONIO NOT AVBL
SAN ANTONIO    MOSUNNY   94  65  38 SE6       29.98F HX  96
6HR MIN TEMP:  87; 6HR MAX TEMP:  95;

STINSON FIELD  SUNNY     95  66  38 SE9       29.95F HX  98
6HR MIN TEMP:  88; 6HR MAX TEMP:  96;

*PLEASANTON    SUNNY     96  65  35 N5        29.95S HX  99
6HR MIN TEMP:  91; 6HR MAX TEMP:  98;

*LA GRANGE     SUNNY     95  73  48 E5        29.95F HX 104
6HR MIN TEMP:  92; 6HR MAX TEMP:  98;

*GIDDINGS      SUNNY     92  70  49 CALM      30.02S HX  97
6HR MIN TEMP:  89; 6HR MAX TEMP:  95;

*GONZALES      SUNNY     97  67  37 E7        29.95F HX 101
6HR MIN TEMP:  91; 6HR MAX TEMP: 100;

$$

TXZ163>164-176>182-195>201-210>213-226-227-235-230100-
SOUTHEAST TEXAS

CITY           SKY/WX    TMP DP  RH WIND       PRES   REMARKS
COLLEGE STN    SUNNY     92  72  51 E6        29.98F HX  99
6HR MIN TEMP:  89; 6HR MAX TEMP:  94;

*BRYAN         SUNNY    N/A N/A N/A CALM      29.98F
*CALDWELL      SUNNY     91  72  52 CALM      30.02S HX  98
*CROCKETT      SUNNY     91  77  62 NE7       30.03S HX 105
*BRENHAM       SUNNY     92  70  48 CALM      29.99S HX  97
6HR MIN TEMP:  89; 6HR MAX TEMP:  93;

HUNTSVILLE     SUNNY     91  74  57 N5        29.99F HX 100
6HR MIN TEMP:  88; 6HR MAX TEMP:  93; 6HR PCP: TRACE;

CONROE         SUNNY     91  76  61 CALM      29.98F HX 103
6HR MIN TEMP:  87; 6HR MAX TEMP:  93;

HOUSTON BUSH   MOSUNNY   92  74  55 NE7       29.96F HX 101
6HR MIN TEMP:  90; 6HR MAX TEMP:  96;

HOUSTON HOBBY  PTSUNNY   84  73  69 SE6       29.97R HX  90
6HR MIN TEMP:  83; 6HR MAX TEMP:  96;

*HOUSTON SW AP HAZE      86  73  64 SE8       29.98R THUNDER VSB 1
6HR MIN TEMP:  86; 6HR MAX TEMP:  95;

PEARLAND       MOSUNNY   83  73  72 S6        29.99S THUNDER
6HR MIN TEMP:  83; 6HR MAX TEMP:  95; 6HR PCP: TRACE;

HOUSTON HOOKS  MOSUNNY   91  76  61 CALM      29.97F HX 103
6HR MIN TEMP:  89; 6HR MAX TEMP:  94;

ELLINGTON FLD  PTSUNNY   88  79  74 S7        29.98R THUNDER HX 102
SUGAR LAND     MOSUNNY   93  75  55 NW5       29.96F HX 104
6HR MIN TEMP:  90; 6HR MAX TEMP:  96;

*HOUSTON EXEC  MOSUNNY   91  75  59 CALM      29.98S HX 102
*CLEVELAND MUN MOSUNNY   87  79  76 NE3       29.99F HX 101
*WHARTON       SUNNY     91  73  55 S9        29.97S HX  99
6HR MIN TEMP:  91; 6HR MAX TEMP:  96;

$$

TXZ214>216-236>238-230100-
THE UPPER TEXAS COAST

CITY           SKY/WX    TMP DP  RH WIND       PRES   REMARKS
*ORANGE        MOSUNNY   87  72  59 NE6       30.00R HX  93
6HR MIN TEMP:  87; 6HR MAX TEMP:  91;

PORT ARTHUR    PTSUNNY   84  77  79 CALM      29.98R HX  94
6HR MIN TEMP:  83; 6HR MAX TEMP:  91; 6HR PCP:  0.01;

GALVESTON      MOSUNNY   87  76  69 S10       29.98S HX  97
6HR MIN TEMP:  87; 6HR MAX TEMP:  91;

ANGLETON       MOSUNNY   88  76  67 S9        29.98S HX  99
6HR MIN TEMP:  88; 6HR MAX TEMP:  94;

*BAY CITY      SUNNY     90  76  62 S8        29.97S HX 101
PALACIOS       SUNNY     88  75  65 S9        29.97F HX  97
6HR MIN TEMP:  88; 6HR MAX TEMP:  91;

$$

TXZ229>234-239>247-230100-
TEXAS COASTAL BEND AND RIO GRANDE PLAINS

CITY           SKY/WX    TMP DP  RH WIND       PRES   REMARKS
VICTORIA       SUNNY     92  74  55 S13       29.96F HX 101
6HR MIN TEMP:  92; 6HR MAX TEMP:  98;

*BEEVILLE      SUNNY     93  74  54 SE15G33   29.95S HX 103
6HR MIN TEMP:  93; 6HR MAX TEMP: 101;

ROCKPORT       SUNNY     87  77  72 SE14      29.96F HX  99
6HR MIN TEMP:  87; 6HR MAX TEMP:  92;

*PORT ARANSAS  SUNNY     85  78  79 SE10      29.97F HX  98
6HR MIN TEMP:  85; 6HR MAX TEMP:  89;

*PORT LAVACA   SUNNY     89  74  61 S9        29.96F HX  99
6HR MIN TEMP:  89; 6HR MAX TEMP:  94;

*INGLESIDE     SUNNY     90  75  62 SE15      29.96F HX 100
CORPUS CHRISTI MOSUNNY   90  75  61 SE16      29.96S HX 100
6HR MIN TEMP:  90; 6HR MAX TEMP:  97;

CORPUS NAS     MOSUNNY   88  79  74 SE18      29.97S HX 103
6HR MIN TEMP:  88; 6HR MAX TEMP:  92;

*ROBSTOWN      SUNNY     91  75  59 SE17      29.96R HX 101
6HR MIN TEMP:  91; 6HR MAX TEMP:  99;

ALICE          SUNNY     92  76  59 SE18G26   29.93R HX 104
6HR MIN TEMP:  92; 6HR MAX TEMP: 102;

KINGSVILLE NAS MOSUNNY   90  78  68 SE16G24   29.95S HX 104
6HR MIN TEMP:  90; 6HR MAX TEMP:  99;

COTULLA        MOSUNNY   99  65  32 SE10      29.92F HX 102
6HR MIN TEMP:  91; 6HR MAX TEMP: 100;

*FAITH RANCH   MOSUNNY   97  68  38 E6        29.93F HX 101
LAREDO         SUNNY    102  64  28 SE12      29.93S HX 104
6HR MIN TEMP:  95; 6HR MAX TEMP: 104;

$$

TXZ248>255-230100-
DEEP SOUTH TEXAS

CITY           SKY/WX    TMP DP  RH WIND       PRES   REMARKS
BROWNSVILLE    MOSUNNY   88  77  69 SE16G23   29.96S HX 100
6HR MIN TEMP:  88; 6HR MAX TEMP:  96;

PORT ISABEL    SUNNY     88  77  69 SE18      29.96S HAZE    HX 100
6HR MIN TEMP:  88; 6HR MAX TEMP:  95;

*SOUTH PADRE   SUNNY     86  79  79 SE9       29.96F HX  99
HARLINGEN      MOSUNNY   91  76  61 SE21      29.93R HX 103
6HR MIN TEMP:  91; 6HR MAX TEMP: 100;

*HEBBRONVILLE  SUNNY     99  60  27 E10       29.94S HX 100
MCALLEN        SUNNY     97  69  40 SE18      29.91S HX 103
6HR MIN TEMP:  96; 6HR MAX TEMP: 102;

*WESLACO       NOT AVBL
FALFURRIAS     SUNNY     88  72  57 E17G23    29.93R HX  95


USA.gov is the U.S. government's official web portal to all federal, state and local government web resources and services.